GW4793 Weather Reports


Display with metric or nautical units.
time (UTC)temp
F
wind
direction
speed
MPH
gust
MPH
rain 1hr
in
rain 24hr
in
rain mn
in
humidity
%
barometer
mb
20260906112836 68 108 0.0 0.0 0.00 0.00 0.00 99 1015.9
20260906112332 68 108 0.0 0.0 0.00 0.00 0.00 99 1015.8
20260906111831 69 110 0.0 0.0 0.00 0.00 0.00 99 1015.5
20260906111326 69 110 0.0 0.0 0.00 0.00 0.00 99 1015.6
20260906110821 69 110 0.0 0.0 0.00 0.00 0.00 99 1015.8
20260906110317 69 109 0.0 0.0 0.00 0.00 0.00 99 1015.8
20260906105816 69 107 0.0 0.0 0.00 0.00 0.00 99 1015.8
20260906105312 69 107 0.0 0.0 0.00 0.00 0.00 99 1015.6
20260906104807 69 107 0.0 0.0 0.00 0.00 0.00 99 1015.7
20260906104305 69 107 0.0 0.0 0.00 0.00 0.00 99 1015.7
20260906103803 69 107 0.0 0.0 0.00 0.00 0.00 99 1015.7
20260906103303 69 107 0.0 0.0 0.00 0.00 0.00 99 1015.5
20260906102800 69 107 0.0 0.0 0.00 0.00 0.00 99 1015.5
20260906102258 69 107 0.0 0.0 0.00 0.00 0.00 99 1015.6
20260906101754 69 106 0.0 0.0 0.00 0.00 0.00 99 1015.4
20260906101253 69 107 0.0 0.0 0.00 0.00 0.00 99 1015.3
20260906100749 69 107 0.0 0.0 0.00 0.00 0.00 99 1015.4
20260906100249 69 107 0.0 0.0 0.00 0.00 0.00 99 1015.3
20260906095744 69 107 0.0 0.0 0.00 0.00 0.00 98 1015.2
20260906095239 69 107 0.0 0.0 0.00 0.00 0.00 98 1015.3
20260906094739 70 107 0.0 0.0 0.00 0.00 0.00 99 1015.1
20260906094234 70 107 0.0 0.0 0.00 0.00 0.00 98 1015.4
20260906093730 70 107 0.0 0.0 0.00 0.00 0.00 98 1015.2
20260906093225 70 106 0.0 0.0 0.00 0.00 0.00 98 1015.0
20260906092721 70 106 0.0 0.0 0.00 0.00 0.00 98 1015.3
20260906092214 70 108 0.0 0.0 0.00 0.00 0.00 98 1015.3
20260906091710 70 95 0.0 0.0 0.00 0.00 0.00 98 1015.1
20260906091206 70 113 0.0 0.0 0.00 0.00 0.00 98 1015.1
20260906090702 70 113 0.0 0.0 0.00 0.00 0.00 98 1015.2
20260906090201 70 114 1.0 1.0 0.00 0.00 0.00 98 1015.2
20260906085700 70 114 0.0 0.0 0.00 0.00 0.00 98 1015.2
20260906085155 70 94 0.0 0.0 0.00 0.00 0.00 98 1015.0
20260906084655 70 121 0.0 0.0 0.00 0.00 0.00 98 1015.1
20260906084149 70 122 0.0 0.0 0.00 0.00 0.00 97 1015.1
20260906083644 71 123 1.0 1.0 0.00 0.00 0.00 97 1015.2
20260906083139 70 117 1.0 1.0 0.00 0.00 0.00 98 1015.2
20260906082635 70 115 0.0 1.0 0.00 0.00 0.00 97 1015.0
20260906082130 70 111 1.0 2.0 0.00 0.00 0.00 97 1015.0
20260906081626 70 138 2.0 2.0 0.00 0.00 0.00 97 1014.9
20260906081121 71 97 0.0 0.0 0.00 0.00 0.00 97 1014.9
20260906080617 71 96 0.0 0.0 0.00 0.00 0.00 97 1015.0
20260906080113 70 89 0.0 0.0 0.00 0.00 0.00 97 1014.8
20260906075607 71 94 0.0 0.0 0.00 0.00 0.00 97 1014.8
20260906075102 71 94 0.0 0.0 0.00 0.00 0.00 96 1014.6
20260906074557 71 95 0.0 0.0 0.00 0.00 0.00 96 1014.6
20260906074055 71 95 0.0 0.0 0.00 0.00 0.00 96 1014.5
20260906073550 71 95 0.0 0.0 0.00 0.00 0.00 96 1014.6
20260906073046 71 95 0.0 0.0 0.00 0.00 0.00 96 1014.6
20260906072541 71 95 0.0 0.0 0.00 0.00 0.00 96 1014.7
20260906072037 71 95 0.0 0.0 0.00 0.00 0.00 96 1014.4
20260906071533 71 94 0.0 0.0 0.00 0.00 0.00 96 1014.4
20260906071028 71 94 0.0 0.0 0.00 0.00 0.00 96 1014.7
20260906070524 71 94 0.0 0.0 0.00 0.00 0.00 95 1014.5
20260906070020 71 93 0.0 0.0 0.00 0.00 0.00 95 1014.5
20260906065519 72 94 0.0 0.0 0.00 0.00 0.00 95 1014.6
20260906065015 72 93 0.0 0.0 0.00 0.00 0.00 95 1014.8
20260906064511 72 94 0.0 0.0 0.00 0.00 0.00 95 1014.6
20260906064005 72 94 0.0 0.0 0.00 0.00 0.00 94 1014.6
20260906063501 72 96 0.0 0.0 0.00 0.00 0.00 94 1014.7
20260906062956 72 94 0.0 0.0 0.00 0.00 0.00 94 1014.9
20260906062451 72 94 0.0 0.0 0.00 0.00 0.00 94 1014.9
20260906061946 72 94 0.0 0.0 0.00 0.00 0.00 93 1014.8
20260906061442 73 94 0.0 0.0 0.00 0.00 0.00 93 1015.2
20260906060936 73 94 0.0 0.0 0.00 0.00 0.00 93 1014.9
20260906060433 73 94 0.0 0.0 0.00 0.00 0.00 92 1014.8
20260906055929 73 94 0.0 0.0 0.00 0.00 0.00 92 1015.0
20260906055425 73 94 0.0 1.0 0.00 0.00 0.00 92 1014.9
20260906054920 73 100 0.0 0.0 0.00 0.00 0.00 92 1015.2
20260906054415 73 100 0.0 0.0 0.00 0.00 0.00 91 1014.9
20260906053911 74 101 0.0 0.0 0.00 0.00 0.00 91 1015.1
20260906053407 74 101 0.0 0.0 0.00 0.00 0.00 90 1014.9
20260906052902 74 90 0.0 0.0 0.00 0.00 0.00 89 1015.1
20260906052358 74 54 1.0 1.0 0.00 0.00 0.00 90 1014.9
20260906051854 74 124 0.0 0.0 0.00 0.00 0.00 90 1014.9
20260906051349 74 124 0.0 0.0 0.00 0.00 0.00 89 1015.1
20260906050844 75 124 0.0 0.0 0.00 0.00 0.00 88 1015.2
20260906050339 75 124 0.0 0.0 0.00 0.00 0.00 88 1015.0
20260906045838 75 124 0.0 0.0 0.00 0.00 0.00 87 1015.2
20260906045332 75 124 0.0 0.0 0.00 0.00 0.00 87 1015.2
20260906044828 76 124 0.0 0.0 0.00 0.00 0.00 86 1015.4
20260906044323 76 124 0.0 1.0 0.00 0.00 0.00 85 1015.2
20260906043819 76 125 0.0 1.0 0.00 0.00 0.00 85 1015.2
20260906043315 77 102 1.0 1.0 0.00 0.00 0.00 84 1015.3
20260906042815 77 138 1.0 2.0 0.00 0.00 0.00 84 1015.3
20260906042314 77 147 1.0 1.0 0.00 0.00 0.00 85 1015.2
20260906041809 77 145 1.0 2.0 0.00 0.00 0.00 84 1015.4
20260906041304 77 109 2.0 2.0 0.00 0.00 0.00 84 1015.4
20260906040800 77 141 0.0 1.0 0.00 0.00 0.00 84 1015.5
20260906040255 77 142 0.0 1.0 0.00 0.00 0.00 83 1015.5
20260906035750 78 142 1.0 2.0 0.00 0.00 0.00 82 1015.6
20260906035246 78 136 0.0 1.0 0.00 0.00 0.00 81 1015.5
20260906034745 79 114 1.0 2.0 0.00 0.00 0.00 81 1015.6
20260906034240 79 137 2.0 2.0 0.00 0.00 0.00 80 1015.6
20260906033736 79 112 1.0 4.0 0.00 0.00 0.00 79 1015.6
20260906033235 79 111 1.0 3.0 0.00 0.00 0.00 78 1015.6
20260906032732 79 145 0.0 1.0 0.00 0.00 0.00 80 1015.4
20260906032227 79 111 1.0 1.0 0.00 0.00 0.00 81 1015.6
20260906031722 78 116 0.0 2.0 0.00 0.00 0.00 82 1015.7
20260906031218 78 124 0.0 2.0 0.00 0.00 0.00 82 1015.5
20260906030717 78 152 1.0 3.0 0.00 0.00 0.00 83 1015.3
20260906030212 78 133 2.0 2.0 0.00 0.00 0.00 83 1015.4
20260906025711 78 151 2.0 2.0 0.00 0.00 0.00 83 1015.4
20260906025206 78 121 0.0 2.0 0.00 0.00 0.00 83 1015.1
20260906024706 78 144 1.0 3.0 0.00 0.00 0.00 82 1015.0
20260906024205 78 137 2.0 3.0 0.00 0.00 0.00 81 1015.2
20260906023701 78 171 2.0 3.0 0.00 0.00 0.00 81 1015.2
20260906023200 79 135 1.0 1.0 0.00 0.00 0.00 80 1015.0
20260906022655 79 113 1.0 1.0 0.00 0.00 0.00 78 1014.8
20260906022151 79 132 1.0 1.0 0.00 0.00 0.00 78 1014.6
20260906021647 80 123 1.0 1.0 0.00 0.00 0.00 77 1014.8
20260906021145 80 113 0.0 0.0 0.00 0.00 0.00 76 1014.4
20260906020640 80 117 0.0 0.0 0.00 0.00 0.00 74 1014.2
20260906020135 81 117 0.0 1.0 0.00 0.00 0.00 73 1014.1
20260906015630 82 135 0.0 0.0 0.00 0.00 0.00 72 1014.0
20260906015128 82 33 1.0 2.0 0.00 0.00 0.00 70 1014.0
20260906014623 83 354 2.0 3.0 0.00 0.00 0.00 69 1014.1
20260906014120 83 40 1.0 3.0 0.00 0.00 0.00 68 1014.0
20260906013614 84 306 4.0 6.0 0.00 0.00 0.00 66 1013.8
20260906013109 84 20 7.0 14.0 0.00 0.00 0.00 65 1014.1
20260906012604 84 102 0.0 2.0 0.00 0.00 0.00 65 1014.1
20260906012059 83 21 5.0 8.0 0.00 0.00 0.00 65 1014.4
20260906011555 80 14 9.0 11.0 0.00 0.00 0.00 70 1014.3
20260906011054 80 72 0.0 0.0 0.00 0.00 0.00 73 1013.8
20260906010550 80 72 0.0 0.0 0.00 0.00 0.00 72 1013.9
20260906010046 81 72 0.0 0.0 0.00 0.00 0.00 73 1013.7
20260906005545 81 71 1.0 1.0 0.00 0.00 0.00 70 1013.1
20260906005044 81 89 0.0 1.0 0.00 0.00 0.00 68 1013.3
20260906004539 82 89 1.0 1.0 0.00 0.00 0.00 68 1013.4
20260906004033 82 89 0.0 1.0 0.00 0.00 0.00 68 1013.4
20260906003529 82 89 1.0 1.0 0.00 0.00 0.00 67 1013.4
20260906003025 83 86 0.0 0.0 0.00 0.00 0.00 64 1013.4
20260906002525 84 86 0.0 0.0 0.00 0.00 0.00 65 1013.3
20260906002019 85 86 0.0 0.0 0.00 0.00 0.00 61 1013.4
20260906001515 86 86 0.0 0.0 0.00 0.00 0.00 59 1013.6
20260906001009 86 71 0.0 0.0 0.00 0.00 0.00 56 1013.7
20260906000506 87 86 0.0 0.0 0.00 0.00 0.00 55 1013.8
20260905235959 87 32 1.0 3.0 0.00 0.00 0.00 55 1014.2
20260905235453 87 36 6.0 7.0 0.00 0.00 0.00 54 1014.5
20260905234948 88 32 2.0 4.0 0.00 0.00 0.00 53 1014.4
20260905234445 88 275 5.0 10.0 0.00 0.00 0.00 52 1014.2
20260905233944 88 352 2.0 8.0 0.00 0.00 0.00 55 1014.3
20260905233440 89 0 3.0 8.0 0.00 0.00 0.00 57 1014.1
20260905232938 89 317 4.0 8.0 0.00 0.00 0.00 57 1014.1
20260905232435 90 300 6.0 8.0 0.00 0.00 0.00 57 1014.1
20260905231930 90 344 4.0 6.0 0.00 0.00 0.00 58 1014.0
20260905231426 91 322 10.0 11.0 0.00 0.00 0.00 57 1014.0
20260905230922 90 21 7.0 8.0 0.00 0.00 0.00 62 1013.8
20260905230420 91 23 1.0 3.0 0.00 0.00 0.00 61 1013.6
20260905225913 91 0 2.0 2.0 0.00 0.00 0.00 61 1013.6
20260905225408 93 44 1.0 2.0 0.00 0.00 0.00 57 1013.4
20260905224903 94 81 0.0 1.0 0.00 0.00 0.00 56 1013.3
20260905224359 94 52 1.0 2.0 0.00 0.00 0.00 55 1013.3
20260905223853 95 102 0.0 0.0 0.00 0.00 0.00 55 1013.0
20260905223351 98 314 1.0 2.0 0.00 0.00 0.00 53 1013.0
20260905222846 97 116 0.0 0.0 0.00 0.00 0.00 50 1012.8
20260905222344 97 137 0.0 0.0 0.00 0.00 0.00 48 1012.9
20260905221841 97 164 1.0 1.0 0.00 0.00 0.00 45 1013.0
20260905221337 98 209 1.0 4.0 0.00 0.00 0.00 46 1013.0
20260905220832 99 221 3.0 3.0 0.00 0.00 0.00 45 1012.9
20260905220329 99 169 0.0 3.0 0.00 0.00 0.00 43 1013.0
20260905215827 100 123 1.0 3.0 0.00 0.00 0.00 43 1013.0
20260905215323 99 239 2.0 3.0 0.00 0.00 0.00 44 1013.1
20260905214820 99 216 4.0 4.0 0.00 0.00 0.00 45 1013.4
20260905214316 98 158 0.0 2.0 0.00 0.00 0.00 44 1013.4
20260905213816 97 301 3.0 4.0 0.00 0.00 0.00 46 1013.1
20260905213312 99 353 2.0 4.0 0.00 0.00 0.00 46 1013.3
20260905212812 100 4 2.0 3.0 0.00 0.00 0.00 45 1013.0
20260905212312 99 229 2.0 3.0 0.00 0.00 0.00 45 1013.4
20260905211807 99 279 2.0 4.0 0.00 0.00 0.00 45 1013.5
20260905211302 99 244 2.0 2.0 0.00 0.00 0.00 44 1013.5
20260905210759 99 177 1.0 2.0 0.00 0.00 0.00 47 1013.7
20260905210258 99 76 0.0 1.0 0.00 0.00 0.00 45 1013.6
20260905205757 100 172 1.0 3.0 0.00 0.00 0.00 44 1013.8
20260905205252 99 227 1.0 1.0 0.00 0.00 0.00 45 1013.7
20260905204751 97 201 0.0 2.0 0.00 0.00 0.00 47 1013.9
20260905204247 97 246 2.0 3.0 0.00 0.00 0.00 47 1014.0
20260905203746 98 345 4.0 4.0 0.00 0.00 0.00 47 1014.0
20260905203242 98 287 3.0 6.0 0.00 0.00 0.00 48 1014.0
20260905202737 97 334 3.0 6.0 0.00 0.00 0.00 48 1014.1
20260905202232 98 281 4.0 6.0 0.00 0.00 0.00 47 1014.0
20260905201728 98 1 5.0 6.0 0.00 0.00 0.00 45 1014.2
20260905201222 98 4 3.0 6.0 0.00 0.00 0.00 46 1014.2
20260905200718 98 306 5.0 8.0 0.00 0.00 0.00 48 1014.4
20260905200213 98 22 3.0 7.0 0.00 0.00 0.00 49 1014.4
20260905195711 99 111 0.0 2.0 0.00 0.00 0.00 45 1014.4
20260905195206 98 0 1.0 3.0 0.00 0.00 0.00 45 1014.5
20260905194702 98 284 3.0 3.0 0.00 0.00 0.00 48 1014.5
20260905194155 98 312 4.0 7.0 0.00 0.00 0.00 48 1014.6
20260905193650 98 215 3.0 3.0 0.00 0.00 0.00 47 1014.5
20260905193145 98 262 4.0 4.0 0.00 0.00 0.00 47 1014.6
20260905192640 98 314 2.0 8.0 0.00 0.00 0.00 47 1015.0
20260905192137 97 155 1.0 2.0 0.00 0.00 0.00 49 1015.0
20260905191636 96 288 2.0 2.0 0.00 0.00 0.00 50 1014.9
20260905191134 96 10 2.0 3.0 0.00 0.00 0.00 49 1015.2
20260905190632 98 300 2.0 3.0 0.00 0.00 0.00 47 1015.1
20260905190126 97 292 3.0 7.0 0.00 0.00 0.00 49 1015.2
20260905185625 97 311 6.0 8.0 0.00 0.00 0.00 48 1015.2
20260905185120 98 312 5.0 7.0 0.00 0.00 0.00 47 1015.1
20260905184614 98 336 3.0 6.0 0.00 0.00 0.00 46 1015.3
20260905184113 98 257 2.0 3.0 0.00 0.00 0.00 48 1015.4
20260905183612 98 310 4.0 4.0 0.00 0.00 0.00 49 1015.4
20260905183109 97 222 0.0 2.0 0.00 0.00 0.00 48 1015.4
20260905182608 96 5 2.0 4.0 0.00 0.00 0.00 51 1015.6
20260905182108 96 16 4.0 6.0 0.00 0.00 0.00 52 1015.8
20260905181608 96 304 2.0 3.0 0.00 0.00 0.00 50 1015.9
20260905181107 96 356 3.0 6.0 0.00 0.00 0.00 51 1015.8
20260905180602 96 327 3.0 3.0 0.00 0.00 0.00 51 1015.8
20260905180057 96 63 0.0 4.0 0.00 0.00 0.00 49 1015.9
20260905175556 97 134 1.0 1.0 0.00 0.00 0.00 48 1015.8
20260905175052 96 173 1.0 6.0 0.00 0.00 0.00 49 1016.2
20260905174547 96 139 0.0 7.0 0.00 0.00 0.00 50 1016.1
20260905174042 96 339 1.0 2.0 0.00 0.00 0.00 52 1016.2
20260905173539 96 135 1.0 4.0 0.00 0.00 0.00 52 1016.2
20260905173034 96 63 1.0 4.0 0.00 0.00 0.00 51 1016.2
20260905172533 95 305 3.0 7.0 0.00 0.00 0.00 55 1016.1
20260905172028 95 200 2.0 3.0 0.00 0.00 0.00 53 1016.2
20260905171525 95 343 4.0 6.0 0.00 0.00 0.00 53 1016.3
20260905171020 96 134 2.0 3.0 0.00 0.00 0.00 53 1016.3
20260905170517 96 20 4.0 4.0 0.00 0.00 0.00 53 1016.4
20260905170012 95 338 3.0 6.0 0.00 0.00 0.00 55 1016.7
20260905165507 95 31 4.0 7.0 0.00 0.00 0.00 54 1016.7
20260905165002 94 336 1.0 3.0 0.00 0.00 0.00 54 1016.7
20260905164455 94 355 3.0 6.0 0.00 0.00 0.00 56 1016.7
20260905163950 94 289 4.0 7.0 0.00 0.00 0.00 55 1016.7
20260905163447 94 167 1.0 2.0 0.00 0.00 0.00 56 1016.9
20260905162943 94 359 4.0 6.0 0.00 0.00 0.00 55 1017.0
20260905162438 94 345 4.0 7.0 0.00 0.00 0.00 56 1016.9
20260905161932 94 318 6.0 8.0 0.00 0.00 0.00 56 1017.0
20260905161432 94 0 3.0 7.0 0.00 0.00 0.00 56 1016.8
20260905160930 94 49 1.0 2.0 0.00 0.00 0.00 55 1017.1
20260905160424 94 348 5.0 6.0 0.00 0.00 0.00 57 1017.1
20260905155918 93 25 3.0 6.0 0.00 0.00 0.00 59 1017.2
20260905155418 93 355 5.0 8.0 0.00 0.00 0.00 59 1017.1
20260905154917 93 359 3.0 4.0 0.00 0.00 0.00 59 1017.0
20260905154413 93 298 2.0 3.0 0.00 0.00 0.00 61 1017.1
20260905153908 91 27 4.0 4.0 0.00 0.00 0.00 60 1016.9
20260905153404 91 290 2.0 6.0 0.00 0.00 0.00 62 1017.0
20260905152904 93 308 5.0 6.0 0.00 0.00 0.00 60 1017.0
20260905152403 91 319 1.0 4.0 0.00 0.00 0.00 62 1017.2
20260905151858 91 291 3.0 4.0 0.00 0.00 0.00 60 1017.1
20260905151349 91 283 3.0 4.0 0.00 0.00 0.00 60 1017.2
20260905150848 92 16 3.0 6.0 0.00 0.00 0.00 59 1017.3
20260905150343 91 81 1.0 4.0 0.00 0.00 0.00 60 1017.2
20260905145840 91 20 2.0 4.0 0.00 0.00 0.00 61 1017.2
20260905145335 91 12 4.0 4.0 0.00 0.00 0.00 61 1017.4
20260905144834 90 59 1.0 3.0 0.00 0.00 0.00 62 1017.2
20260905144329 90 347 0.0 1.0 0.00 0.00 0.00 65 1017.1
20260905143828 89 36 1.0 2.0 0.00 0.00 0.00 63 1017.2
20260905143322 88 86 1.0 1.0 0.00 0.00 0.00 66 1017.2
20260905142821 88 7 3.0 3.0 0.00 0.00 0.00 66 1017.3
20260905142316 88 52 1.0 3.0 0.00 0.00 0.00 65 1017.3
20260905141812 88 72 1.0 2.0 0.00 0.00 0.00 67 1017.4
20260905141307 87 68 1.0 1.0 0.00 0.00 0.00 69 1017.3
20260905140802 86 41 2.0 2.0 0.00 0.00 0.00 70 1017.5
20260905140302 86 55 2.0 2.0 0.00 0.00 0.00 70 1017.3
20260905135801 86 70 1.0 2.0 0.00 0.00 0.00 74 1017.3
20260905135257 86 283 1.0 2.0 0.00 0.00 0.00 74 1017.4
20260905134757 85 39 1.0 1.0 0.00 0.00 0.00 76 1017.4
20260905134250 85 61 0.0 0.0 0.00 0.00 0.00 77 1017.8
20260905133745 84 62 0.0 0.0 0.00 0.00 0.00 78 1017.7
20260905133240 83 61 1.0 1.0 0.00 0.00 0.00 80 1017.5
20260905132739 82 64 0.0 0.0 0.00 0.00 0.00 81 1017.6
20260905132230 81 64 0.0 0.0 0.00 0.00 0.00 87 1017.6
20260905131730 79 81 1.0 1.0 0.00 0.00 0.00 89 1017.9
20260905131225 77 72 0.0 1.0 0.00 0.00 0.00 96 1017.9
20260905130719 76 173 1.0 2.0 0.00 0.00 0.00 98 1017.7
20260905130214 76 85 0.0 0.0 0.00 0.00 0.00 99 1017.7
20260905125709 75 85 0.0 0.0 0.00 0.00 0.00 99 1017.7
20260905125204 75 85 0.0 0.0 0.00 0.00 0.00 99 1017.5
20260905124700 74 85 0.0 0.0 0.00 0.00 0.00 99 1017.6
20260905124156 74 85 0.0 0.0 0.00 0.00 0.00 99 1017.6
20260905123651 73 85 0.0 0.0 0.00 0.00 0.00 99 1017.7
20260905123148 73 85 0.0 0.0 0.00 0.00 0.00 99 1017.6
20260905122647 73 85 0.0 0.0 0.00 0.00 0.00 99 1017.6
20260905122142 72 85 0.0 0.0 0.00 0.00 0.00 99 1017.7
20260905121637 72 85 0.0 0.0 0.00 0.00 0.00 99 1017.6
20260905121132 72 85 0.0 0.0 0.00 0.00 0.00 99 1017.5
20260905120631 72 85 0.0 0.0 0.00 0.00 0.00 99 1017.4
20260905120126 72 85 0.0 0.0 0.00 0.00 0.00 99 1017.4
20260905115620 72 85 0.0 0.0 0.00 0.00 0.00 99 1017.3
20260905115115 72 85 0.0 0.0 0.00 0.00 0.00 99 1017.4
20260905114614 72 85 0.0 0.0 0.00 0.00 0.00 99 1017.2
20260905114112 72 85 0.0 0.0 0.00 0.00 0.00 99 1017.0
20260905113603 72 85 0.0 0.0 0.00 0.00 0.00 99 1017.3